User: anonymous   Login
Location: Vancouver
(49.2500°N, 123.1330°W)
Time: 15:13:02
(UTC-07:00)
Language:

Cosmos 1340 Rocket - Orbit

View from above orbital plane
View from above orbital plane
View from above satellite
View from above satellite

Ground track
Ground track

The orbit data is extracted from the following two-line orbital elements,

1 13068U 82013B   15086.95426757  .00003966  00000-0  27267-3 0  9998
2 13068 081.2021 068.9826 0023713 114.0405 246.3303 15.05487692801214
Epoch (UTC): 27 March 2015 22:54:08
Eccentricity: 0.0023713
inclination: 81.2021°
perigee height: 533 km
apogee height: 566 km
right ascension of ascending node: 68.9826°
argument of perigee: 114.0405°
revolutions per day: 15.05487692
mean anomaly at epoch: 246.3303°
orbit number at epoch: 80121

The dashed part of the orbit path shows where the satellite is in the earth's shadow,  

DLR